SHIJIAN-6 05A (SJ-6 05A) (49961 NORAD) Tracking and Keplerian Element Data

This shows tracking and keplerian element data for the satellite.

Feedback or suggestion? Click here.




ElementValue
Catalog49961
NameSHIJIAN-6 05A (SJ-6 05A)
Epoch Orbit2478
Epoch Day140.67319007
Epoch Year2022
RAAN157.4791
Inclination97.3469
Eccentricity0.0012016
Argument of Perigee51.1058
Mean Anonmoly309.1254
Mean Motion15.34134268
Decay Rate0.00011454
L11 49961U 21122A 22140.67319007 .00011454 00000+0 34822-3 0 9995
L22 49961 97.3469 157.4791 0012016 51.1058 309.1254 15.34134268 24785

Live tracking and technical data element details for SHIJIAN-6 05A (SJ-6 05A) (NORAD 49961). SHIJIAN-6 05A (SJ-6 05A) can be tracked NOW for your location showing map with azimuth and elevation plus other details from your city location.

Track the satellite on the map from your city or location and see movement details for azimuth, elevation, latitude, longitude, range, height, and movement on the map or in text.







IsCatalogInMostPopularTable: catalog: 49961, numindb: 21
Update: records affected: 1



GetName: 49961 SHIJIAN-6 05A (SJ-6 05A)

Hit Count: updated at: Sun, 22 May 2022 05:08:21 GMT